GW1239 Weather Reports


time (UTC)temp
C
wind
direction
speed
KPH
gust
KPH
rain 1hr
cm
rain 24hr
cm
rain mn
cm
humidity
%
barometer
mb
20260510164517 22 118 3.2 9.7 0.00 0.15 0.00 65 1013.1
20260510164017 22 319 3.2 8.0 0.00 0.15 0.00 68 1013.2
20260510163521 22 172 1.6 6.4 0.00 0.15 0.00 67 1013.2
20260510163021 21 1 4.8 9.7 0.00 0.15 0.00 68 1013.2
20260510162538 21 102 3.2 9.7 0.00 0.15 0.00 69 1013.3
20260510162018 21 338 3.2 8.0 0.00 0.15 0.00 69 1013.3
20260510161538 21 304 3.2 9.7 0.00 0.15 0.00 71 1013.3
20260510161017 20 77 3.2 9.7 0.00 0.15 0.00 72 1013.3
20260510160538 20 104 3.2 9.7 0.00 0.15 0.00 73 1013.3
20260510160018 20 122 3.2 11.3 0.00 0.15 0.00 74 1013.3
20260510155516 20 214 3.2 8.0 0.00 0.15 0.00 76 1013.4
20260510155016 20 126 6.4 11.3 0.00 0.15 0.00 75 1013.5
20260510154517 20 111 3.2 11.3 0.00 0.15 0.00 76 1013.7
20260510154036 19 14 3.2 6.4 0.00 0.15 0.00 75 1013.8
20260510153518 19 336 3.2 6.4 0.00 0.15 0.00 76 1013.7
20260510153019 19 97 3.2 8.0 0.00 0.15 0.00 76 1013.6
20260510152539 18 92 1.6 9.7 0.00 0.15 0.00 79 1013.7
20260510152017 18 15 3.2 6.4 0.00 0.15 0.00 78 1013.6
20260510151557 18 328 1.6 6.4 0.00 0.15 0.00 79 1013.7
20260510151017 18 305 3.2 6.4 0.00 0.15 0.00 79 1013.8
20260510150516 18 337 1.6 4.8 0.00 0.15 0.00 81 1013.8
20260510150036 17 138 3.2 8.0 0.00 0.15 0.00 80 1013.7
20260510145516 17 289 1.6 4.8 0.00 0.15 0.00 83 1013.7
20260510145016 17 4 3.2 6.4 0.00 0.15 0.00 82 1013.7
20260510144539 17 350 1.6 4.8 0.00 0.15 0.00 83 1013.7
20260510144018 17 308 1.6 6.4 0.00 0.15 0.00 84 1013.7
20260510143517 16 25 3.2 8.0 0.00 0.15 0.00 85 1013.8
20260510143018 16 105 3.2 8.0 0.00 0.15 0.00 86 1013.8
20260510142518 16 124 3.2 8.0 0.00 0.15 0.00 86 1013.8
20260510142017 16 256 1.6 4.8 0.00 0.15 0.00 88 1013.8
20260510141517 16 123 3.2 6.4 0.00 0.15 0.00 88 1013.7
20260510141017 15 124 1.6 6.4 0.00 0.15 0.00 87 1013.7
20260510140517 15 147 1.6 4.8 0.00 0.15 0.00 89 1013.7
20260510140017 15 155 1.6 4.8 0.00 0.15 0.00 92 1013.6
20260510135537 14 107 1.6 4.8 0.00 0.15 0.00 94 1013.6
20260510135017 13 108 1.6 3.2 0.00 0.15 0.00 96 1013.5
20260510134518 13 287 1.6 3.2 0.00 0.15 0.00 98 1013.4
20260510134039 13 230 1.6 3.2 0.00 0.15 0.00 97 1013.4
20260510133538 12 232 1.6 4.8 0.00 0.15 0.00 98 1013.3
20260510133038 12 103 1.6 4.8 0.00 0.15 0.00 100 1013.4
20260510132517 12 101 1.6 4.8 0.00 0.15 0.00 100 1013.6
20260510132039 12 247 1.6 3.2 0.00 0.15 0.00 100 1013.6
20260510131519 12 48 0.0 1.6 0.00 0.15 0.00 100 1013.6
20260510131019 12 21 0.0 1.6 0.00 0.15 0.00 100 1013.7
20260510130519 11 288 1.6 1.6 0.00 0.15 0.00 100 1013.7
20260510130019 11 273 1.6 3.2 0.00 0.15 0.00 100 1013.6
20260510125520 11 42 1.6 3.2 0.00 0.15 0.00 100 1013.6
20260510125019 11 329 1.6 3.2 0.00 0.15 0.00 100 1013.5
20260510124520 11 33 1.6 4.8 0.00 0.15 0.00 100 1013.3
20260510124020 11 207 3.2 4.8 0.00 0.15 0.00 100 1013.1
20260510123520 11 124 3.2 4.8 0.00 0.15 0.00 100 1013.1
20260510123020 11 201 1.6 3.2 0.00 0.15 0.00 100 1013.1
20260510122600 11 157 3.2 4.8 0.00 0.15 0.00 100 1013.1
20260510122020 11 125 1.6 3.2 0.00 0.15 0.00 100 1013.0
20260510121520 11 202 1.6 3.2 0.00 0.15 0.00 100 1013.0
20260510121040 11 163 1.6 4.8 0.00 0.15 0.00 100 1012.9
20260510120520 11 141 1.6 4.8 0.00 0.15 0.00 100 1013.0
20260510120020 11 162 1.6 4.8 0.00 0.15 0.00 100 1012.8
20260510115520 11 227 1.6 3.2 0.00 0.15 0.00 100 1012.7
20260510115041 11 176 1.6 3.2 0.00 0.15 0.00 100 1012.7
20260510114541 11 139 1.6 4.8 0.00 0.15 0.00 99 1012.7
20260510114021 11 136 3.2 4.8 0.00 0.15 0.00 99 1012.7
20260510113521 11 166 1.6 3.2 0.00 0.15 0.00 99 1012.7
20260510113021 11 207 1.6 3.2 0.00 0.15 0.00 99 1012.7
20260510112521 11 231 1.6 3.2 0.00 0.15 0.00 99 1012.7
20260510112021 10 140 1.6 3.2 0.00 0.15 0.00 99 1012.6
20260510111521 10 159 1.6 3.2 0.00 0.15 0.00 99 1012.6
20260510111021 10 164 1.6 4.8 0.00 0.15 0.00 99 1012.6
20260510110521 10 266 1.6 4.8 0.00 0.15 0.00 99 1012.7
20260510110042 10 247 1.6 3.2 0.00 0.15 0.00 99 1012.6
20260510105522 10 232 1.6 1.6 0.00 0.15 0.00 99 1012.4
20260510105022 10 213 1.6 1.6 0.00 0.15 0.00 99 1012.3
20260510104522 10 212 1.6 1.6 0.00 0.15 0.00 99 1012.2
20260510104022 10 152 1.6 1.6 0.00 0.15 0.00 99 1012.1
20260510103522 10 204 0.0 1.6 0.00 0.15 0.00 99 1012.1
20260510103022 10 250 1.6 3.2 0.00 0.15 0.00 99 1012.1
20260510102542 10 232 1.6 1.6 0.00 0.15 0.00 99 1012.0
20260510102022 10 234 3.2 6.4 0.00 0.15 0.00 99 1012.0
20260510101522 10 203 1.6 1.6 0.00 0.15 0.00 99 1012.0
20260510101022 10 173 1.6 3.2 0.00 0.15 0.00 99 1012.0
20260510100522 10 214 1.6 3.2 0.00 0.15 0.00 99 1012.0
20260510100022 10 181 1.6 3.2 0.00 0.15 0.00 99 1011.9
20260510095522 10 258 1.6 3.2 0.00 0.15 0.00 99 1011.9
20260510095023 10 205 1.6 1.6 0.00 0.15 0.00 99 1011.9
20260510094522 10 126 1.6 3.2 0.00 0.15 0.00 99 1011.8
20260510094023 10 146 1.6 3.2 0.00 0.15 0.00 99 1011.9
20260510093543 10 235 1.6 3.2 0.00 0.15 0.00 99 1011.9
20260510093023 10 146 1.6 1.6 0.00 0.15 0.00 99 1012.0
20260510092523 10 240 1.6 4.8 0.00 0.15 0.00 99 1011.9
20260510092043 10 223 1.6 3.2 0.00 0.15 0.00 99 1012.0
20260510091523 10 237 1.6 3.2 0.00 0.15 0.00 99 1012.0
20260510091023 10 226 1.6 3.2 0.00 0.15 0.00 99 1012.0
20260510090523 10 137 1.6 3.2 0.00 0.15 0.00 99 1011.9
20260510090017 10 205 1.6 4.8 0.00 0.15 0.00 99 1012.0
20260510085517 10 135 3.2 6.4 0.00 0.15 0.00 99 1011.9
20260510085017 9 258 1.6 3.2 0.00 0.15 0.00 99 1012.0
20260510084518 9 154 1.6 4.8 0.00 0.15 0.00 99 1011.9
20260510084017 9 160 3.2 6.4 0.00 0.15 0.00 99 1011.7
20260510083558 8 236 3.2 4.8 0.00 0.15 0.00 99 1012.0
20260510083018 8 171 1.6 4.8 0.00 0.15 0.00 99 1011.8
20260510082518 8 297 1.6 3.2 0.00 0.15 0.00 99 1011.7
20260510082018 8 138 1.6 1.6 0.00 0.15 0.00 99 1011.4
20260510081538 8 173 0.0 1.6 0.00 0.15 0.00 99 1011.3
20260510081038 8 129 1.6 3.2 0.00 0.15 0.00 99 1011.3
20260510080518 8 147 1.6 3.2 0.00 0.15 0.00 99 1011.3
20260510080018 8 162 1.6 1.6 0.00 0.15 0.00 99 1011.3
20260510075518 8 121 1.6 3.2 0.00 0.15 0.00 99 1011.3
20260510075018 8 145 1.6 3.2 0.00 0.15 0.00 99 1011.2
20260510074519 8 213 1.6 3.2 0.00 0.15 0.00 99 1011.2
20260510074018 8 192 1.6 3.2 0.00 0.15 0.00 99 1011.3
20260510073518 8 191 1.6 3.2 0.00 0.15 0.00 99 1011.3
20260510073018 8 160 0.0 1.6 0.00 0.15 0.00 99 1011.2
20260510072518 8 232 1.6 3.2 0.00 0.15 0.00 99 1011.2
20260510072039 8 203 1.6 3.2 0.00 0.15 0.00 99 1011.2
20260510071559 8 169 1.6 3.2 0.00 0.15 0.00 99 1011.2
20260510071019 8 250 1.6 4.8 0.00 0.15 0.00 99 1011.2
20260510070518 8 264 1.6 6.4 0.00 0.15 0.00 99 1011.2
20260510070016 8 275 0.0 1.6 0.00 0.15 0.00 99 1011.1
20260510065516 8 133 1.6 3.2 0.00 0.15 0.00 99 1011.0
20260510065016 8 138 1.6 3.2 0.00 0.15 0.00 99 1011.0
20260510064540 8 159 1.6 1.6 0.00 0.15 0.00 99 1011.0
20260510064059 8 165 0.0 1.6 0.00 0.15 0.00 99 1010.8
20260510063520 8 129 1.6 3.2 0.00 0.15 0.00 99 1010.7
20260510063017 8 134 1.6 3.2 0.00 0.15 0.00 99 1010.7
20260510062537 8 139 1.6 1.6 0.00 0.15 0.00 99 1010.8
20260510062017 8 147 0.0 1.6 0.00 0.15 0.00 99 1010.9
20260510061517 8 133 1.6 3.2 0.00 0.15 0.00 99 1010.8
20260510061017 8 131 1.6 1.6 0.00 0.15 0.00 99 1010.8
20260510060517 8 128 1.6 3.2 0.00 0.15 0.00 99 1010.9
20260510060038 8 138 0.0 1.6 0.00 0.15 0.00 99 1010.9
20260510055520 8 136 1.6 1.6 0.00 0.15 0.00 99 1010.9
20260510055020 9 135 1.6 3.2 0.00 0.15 0.00 99 1010.9
20260510054517 9 132 1.6 1.6 0.00 0.15 0.00 99 1010.9
20260510054017 9 157 1.6 1.6 0.00 0.15 0.00 99 1011.0
20260510053517 9 156 0.0 1.6 0.00 0.15 0.00 99 1011.1
20260510053018 9 137 1.6 3.2 0.00 0.15 0.00 99 1011.1
20260510052517 9 122 1.6 3.2 0.00 0.15 0.00 99 1011.1
20260510052037 9 133 1.6 3.2 0.00 0.15 0.00 99 1011.1
20260510051518 9 152 1.6 1.6 0.00 0.15 0.00 99 1011.2
20260510051018 9 136 1.6 3.2 0.00 0.15 0.00 99 1011.2
20260510050558 9 138 0.0 1.6 0.00 0.15 0.00 99 1011.3
20260510050018 9 125 0.0 1.6 0.00 0.15 0.00 99 1011.2
20260510045558 9 151 0.0 1.6 0.00 0.15 0.00 99 1011.2
20260510045038 9 141 0.0 1.6 0.00 0.15 0.00 99 1011.3
20260510044518 9 155 1.6 1.6 0.00 0.15 0.00 99 1011.3
20260510044018 9 145 1.6 3.2 0.00 0.15 0.00 99 1011.3
20260510043518 9 130 1.6 3.2 0.00 0.15 0.00 99 1011.3
20260510043018 9 149 0.0 1.6 0.00 0.15 0.00 99 1011.3
20260510042518 9 160 0.0 1.6 0.00 0.15 0.00 99 1011.3
20260510042019 9 153 1.6 3.2 0.00 0.15 0.00 99 1011.3
20260510041518 8 153 0.0 1.6 0.00 0.15 0.00 99 1011.3
20260510041018 8 148 0.0 1.6 0.00 0.15 0.00 99 1011.3
20260510040516 8 149 0.0 1.6 0.00 0.15 0.00 99 1011.3
20260510040016 8 129 0.0 1.6 0.00 0.15 0.00 99 1011.3
20260510035519 8 132 1.6 1.6 0.00 0.15 0.15 99 1011.3
20260510035019 8 142 0.0 1.6 0.00 0.15 0.15 99 1011.3
20260510034519 8 146 0.0 1.6 0.00 0.15 0.15 99 1011.2
20260510034019 8 139 0.0 1.6 0.00 0.15 0.15 99 1011.2
20260510033540 8 140 1.6 3.2 0.00 0.15 0.15 99 1011.1
20260510033017 8 144 1.6 3.2 0.00 0.15 0.15 99 1011.0
20260510032520 8 115 1.6 1.6 0.00 0.15 0.15 99 1011.0
20260510032016 8 132 0.0 1.6 0.00 0.15 0.15 99 1011.0
20260510031557 8 126 1.6 3.2 0.00 0.15 0.15 100 1011.1
20260510031037 8 139 1.6 3.2 0.00 0.15 0.15 100 1011.0
20260510030517 8 138 0.0 1.6 0.00 0.15 0.15 100 1011.0
20260510030017 8 114 0.0 1.6 0.00 0.15 0.15 100 1010.9
20260510025520 8 129 0.0 1.6 0.00 0.15 0.15 100 1010.9
20260510025020 9 141 0.0 1.6 0.00 0.15 0.15 100 1010.9
20260510024540 9 126 1.6 1.6 0.00 0.15 0.15 100 1010.8
20260510024018 9 132 1.6 3.2 0.00 0.15 0.15 100 1010.8
20260510023517 8 133 1.6 3.2 0.00 0.15 0.15 100 1010.8
20260510023018 8 138 0.0 1.6 0.00 0.15 0.15 100 1010.8
20260510022537 8 114 1.6 1.6 0.00 0.15 0.15 100 1010.8
20260510022017 8 123 1.6 3.2 0.00 0.15 0.15 99 1010.9
20260510021518 8 161 0.0 1.6 0.00 0.15 0.15 99 1010.8
20260510021018 9 140 0.0 1.6 0.00 0.15 0.15 99 1010.8
20260510020518 9 131 1.6 1.6 0.00 0.15 0.15 99 1010.8
20260510020118 9 129 1.6 1.6 0.00 0.15 0.15 99 1010.8
20260510015518 9 102 0.0 1.6 0.00 0.15 0.15 99 1010.9
20260510015018 9 141 0.0 1.6 0.00 0.15 0.15 99 1010.9
20260510014518 10 154 0.0 1.6 0.00 0.15 0.15 99 1010.9
20260510014018 10 112 1.6 1.6 0.00 0.15 0.15 99 1010.9
20260510013518 10 122 1.6 3.2 0.00 0.15 0.15 99 1010.9
20260510013019 10 137 1.6 3.2 0.00 0.15 0.15 99 1010.9
20260510012539 10 120 0.0 1.6 0.00 0.15 0.15 99 1010.8
20260510012018 10 128 0.0 1.6 0.00 0.15 0.15 99 1010.8
20260510011539 10 128 1.6 3.2 0.00 0.15 0.15 99 1010.7
20260510011036 10 129 1.6 3.2 0.00 0.15 0.15 99 1010.7
20260510010516 10 137 1.6 3.2 0.00 0.15 0.15 99 1010.6
20260510010016 10 160 0.0 1.6 0.00 0.15 0.15 98 1010.6
20260510005519 10 133 1.6 1.6 0.00 0.15 0.15 98 1010.5
20260510005019 10 154 0.0 1.6 0.00 0.15 0.15 98 1010.5
20260510004519 11 107 1.6 3.2 0.00 0.15 0.15 98 1010.4
20260510004020 11 125 1.6 3.2 0.00 0.15 0.15 98 1010.3
20260510003519 11 129 1.6 3.2 0.00 0.15 0.15 98 1010.2
20260510003037 11 130 1.6 3.2 0.00 0.15 0.15 98 1010.3
20260510002517 11 127 1.6 3.2 0.00 0.15 0.15 98 1010.3
20260510002117 11 134 1.6 3.2 0.00 0.15 0.15 97 1010.3
20260510001537 11 115 1.6 3.2 0.00 0.15 0.15 97 1010.3
20260510001017 11 116 1.6 3.2 0.00 0.15 0.15 97 1010.3
20260510000517 12 137 1.6 1.6 0.00 0.15 0.15 97 1010.3
20260510000017 12 136 1.6 1.6 0.00 0.15 0.15 96 1010.2
20260509235520 12 122 1.6 3.2 0.00 0.15 0.15 96 1010.2
20260509235020 12 133 0.0 1.6 0.00 0.15 0.15 96 1010.3
20260509234520 12 171 0.0 4.8 0.00 0.15 0.15 96 1010.3
20260509234017 12 165 0.0 1.6 0.00 0.15 0.15 95 1010.2
20260509233517 12 139 1.6 1.6 0.00 0.15 0.15 95 1010.3
20260509233037 12 132 0.0 1.6 0.00 0.15 0.15 95 1010.4
20260509232537 13 177 0.0 1.6 0.00 0.15 0.15 95 1010.3
20260509232018 13 158 0.0 1.6 0.00 0.15 0.15 95 1010.3
20260509231518 13 169 0.0 1.6 0.00 0.15 0.15 94 1010.3
20260509231018 13 161 0.0 1.6 0.00 0.15 0.15 93 1010.3
20260509230518 13 173 0.0 1.6 0.00 0.15 0.15 93 1010.3
20260509230038 13 185 1.6 1.6 0.00 0.15 0.15 93 1010.3
20260509225518 13 117 1.6 4.8 0.00 0.15 0.15 94 1010.3
20260509225018 13 177 0.0 1.6 0.00 0.15 0.15 94 1010.3
20260509224518 13 275 1.6 3.2 0.00 0.15 0.15 95 1010.4
20260509224039 13 172 1.6 3.2 0.00 0.15 0.15 95 1010.3
20260509223519 13 119 1.6 4.8 0.00 0.15 0.15 95 1010.2
20260509223039 13 171 1.6 3.2 0.00 0.15 0.15 95 1010.2
20260509222518 13 163 1.6 3.2 0.00 0.15 0.15 95 1010.2
20260509222018 13 140 3.2 8.0 0.00 0.15 0.15 95 1010.3
20260509221519 13 148 1.6 4.8 0.03 0.15 0.15 95 1010.3
20260509221016 13 129 1.6 4.8 0.05 0.15 0.15 95 1010.4
20260509220516 13 132 3.2 6.4 0.08 0.15 0.15 95 1010.5
20260509220036 13 106 1.6 4.8 0.10 0.15 0.15 95 1010.5
20260509215519 13 143 3.2 4.8 0.13 0.15 0.15 95 1010.6
20260509215019 13 147 1.6 4.8 0.15 0.15 0.15 95 1010.6
20260509214519 13 170 3.2 6.4 0.15 0.15 0.15 95 1010.6
20260509214019 13 173 3.2 6.4 0.15 0.15 0.15 96 1010.6
20260509213517 13 156 1.6 4.8 0.15 0.15 0.15 96 1010.7
20260509213036 13 162 3.2 4.8 0.15 0.15 0.15 96 1010.7
20260509212517 13 125 1.6 4.8 0.15 0.15 0.15 95 1010.6
20260509212017 13 111 3.2 3.2 0.15 0.15 0.15 95 1010.8
20260509211517 13 185 1.6 3.2 0.13 0.13 0.13 93 1010.8
20260509211037 13 245 1.6 3.2 0.10 0.10 0.10 93 1010.4
20260509210517 13 122 1.6 3.2 0.05 0.08 0.08 91 1010.5
20260509210017 13 126 1.6 4.8 0.05 0.05 0.05 90 1010.5
20260509205520 13 207 1.6 3.2 0.03 0.03 0.03 90 1010.7
20260509205017 13 204 1.6 3.2 0.00 0.00 0.00 89 1010.7
20260509204517 13 260 1.6 3.2 0.00 0.00 0.00 90 1010.5
20260509204017 13 247 1.6 6.4 0.00 0.00 0.00 89 1010.4
20260509203518 13 252 3.2 4.8 0.00 0.00 0.00 88 1010.2
20260509203018 13 248 1.6 6.4 0.00 0.00 0.00 88 1010.3
20260509202518 13 235 1.6 6.4 0.00 0.00 0.00 88 1010.4
20260509202018 14 290 3.2 6.4 0.00 0.00 0.00 88 1010.6
20260509201518 14 281 3.2 9.7 0.00 0.00 0.00 88 1010.5
20260509201018 14 280 3.2 6.4 0.00 0.00 0.00 89 1010.4
20260509200518 14 280 1.6 4.8 0.00 0.00 0.00 90 1010.4
20260509200018 14 264 4.8 9.7 0.00 0.00 0.00 88 1010.5
20260509195518 14 311 1.6 4.8 0.00 0.03 0.00 89 1010.5
20260509195018 13 307 1.6 3.2 0.00 0.03 0.00 89 1010.7
20260509194539 13 294 1.6 3.2 0.00 0.03 0.00 89 1010.8
20260509194039 13 299 1.6 3.2 0.00 0.03 0.00 88 1010.9
20260509193539 14 304 1.6 9.7 0.00 0.03 0.00 88 1011.0
20260509193019 14 282 3.2 4.8 0.00 0.03 0.00 87 1011.2
20260509192519 14 296 1.6 8.0 0.00 0.00 0.00 85 1011.3
20260509192016 14 307 1.6 4.8 0.00 0.00 0.00 86 1011.3
20260509191516 14 301 1.6 4.8 0.00 0.00 0.00 85 1011.3
20260509191016 14 300 1.6 6.4 0.00 0.00 0.00 84 1011.4
20260509190539 14 280 3.2 9.7 0.00 0.00 0.00 85 1011.3
20260509190019 15 339 1.6 6.4 0.00 0.00 0.00 83 1011.4
20260509185519 15 290 4.8 12.9 0.00 0.00 0.00 81 1011.4
20260509185019 15 326 1.6 3.2 0.00 0.00 0.00 80 1011.4
20260509184519 15 349 1.6 4.8 0.00 0.00 0.00 79 1011.3
20260509184017 15 353 1.6 4.8 0.00 0.00 0.00 79 1011.3
20260509183517 15 310 3.2 8.0 0.00 0.00 0.00 78 1011.3
20260509183017 15 338 3.2 8.0 0.00 0.00 0.00 78 1011.2
20260509182537 15 309 1.6 6.4 0.00 0.00 0.00 78 1011.1
20260509182017 16 341 1.6 4.8 0.00 0.00 0.00 77 1011.1
20260509181537 16 295 3.2 8.0 0.00 0.00 0.00 77 1011.1
20260509181017 16 313 1.6 4.8 0.00 0.00 0.00 76 1011.1
20260509180520 16 300 1.6 4.8 0.00 0.03 0.00 76 1011.0
20260509180020 16 274 3.2 9.7 0.00 0.03 0.00 77 1011.0
20260509175517 16 10 1.6 3.2 0.00 0.03 0.00 77 1011.1
20260509175017 16 341 3.2 8.0 0.00 0.03 0.00 76 1011.2
20260509174517 16 337 1.6 4.8 0.00 0.03 0.00 76 1011.1
20260509174017 16 327 3.2 6.4 0.00 0.03 0.00 77 1011.1
20260509173518 16 342 3.2 4.8 0.00 0.03 0.00 77 1011.2
20260509173018 16 308 1.6 3.2 0.00 0.03 0.00 78 1011.3
20260509172518 16 320 1.6 8.0 0.00 0.03 0.00 77 1011.3
20260509172018 16 315 3.2 6.4 0.00 0.03 0.00 77 1011.2
20260509171518 17 329 1.6 4.8 0.00 0.03 0.00 75 1011.2
20260509171038 17 355 1.6 4.8 0.00 0.03 0.00 74 1011.2
20260509170518 17 172 1.6 8.0 0.00 0.03 0.00 72 1011.2
20260509170038 17 149 1.6 6.4 0.00 0.03 0.00 72 1011.1
20260509165519 17 148 1.6 4.8 0.00 0.03 0.00 72 1011.1
20260509165018 17 71 1.6 6.4 0.00 0.03 0.00 70 1011.1